OpenBCM V1.08-5-g2f4a (Linux)

Packet Radio Mailbox

IZ3LSV

[San Dona' di P. JN]

 Login: GUEST





  
I6KZR  > KEPLER   09.10.12 10:24l 992 Lines 26326 Bytes #999 (0) @ EU
BID : 1635_I6KZR
Read: GUEST
Subj: Old Istantrak keplerians #355
Path: IZ3LSV<IV3SCP<SR1BSZ<F1OYP<F1OYP<VK4TUB<VK4WIT<EA5RQ<7M3TJZ<RV3DHC<
      HA3PG<SV1AAW<IK6PYS<I6DH
Sent: 1001220/1954Z @:I6DH.IMAR.ITA.EU #:5572 [Ascoli P.] FBB5.15c $:1635_I6KZR
From: I6KZR@I6DH.IMAR.ITA.EU
To  : KEPLER@EU

R.001220/2034z @:I6KZR.I6DH.#IMAR.ITA.EU $:1635_I6KZR Sally 3.1.064 

Messaggio inviato da: I6KZR@I6DH.IMAR.ITA.EU        

Satellite: AO-10
Catalog number: 14129
Epoch time:      100354.06173193
Element set:     726 
Inclination:       26.6864 deg
RA of node:       295.8479 deg
Eccentricity:    0.6002471
Arg of perigee:   110.4484 deg
Mean anomaly:     321.2431 deg
Mean motion:    2.05864767 rev/day
Decay rate:    5.3999E-007 rev/day^2
Epoch rev:           10376
Checksum:              398

Satellite: AO-40
Catalog number: 26609
Epoch time:      100354.78150683
Element set:     16 
Inclination:        6.2479 deg
RA of node:       237.0656 deg
Eccentricity:    0.8128421
Arg of perigee:   195.4843 deg
Mean anomaly:      97.8405 deg
Mean motion:    1.26866570 rev/day
Decay rate:   -2.9200E-006 rev/day^2
Epoch rev:              61
Checksum:              387

Satellite: FO-20
Catalog number: 20480
Epoch time:      100354.85612425
Element set:     302 
Inclination:       99.0747 deg
RA of node:        90.6837 deg
Eccentricity:    0.0541232
Arg of perigee:   355.1405 deg
Mean anomaly:       4.4565 deg
Mean motion:   12.83284724 rev/day
Decay rate:    3.0999E-007 rev/day^2
Epoch rev:           50909
Checksum:              308

Satellite: FO-29
Catalog number: 24278
Epoch time:      100354.69462360
Element set:     409 
Inclination:       98.5694 deg
RA of node:       238.0193 deg
Eccentricity:    0.0351992
Arg of perigee:   106.7896 deg
Mean anomaly:     257.2167 deg
Mean motion:   13.52751692 rev/day
Decay rate:   -3.9999E-008 rev/day^2
Epoch rev:           21437
Checksum:              372

Satellite: MIR
Catalog number: 16609
Epoch time:      100355.50090278
Element set:     335 
Inclination:       51.6471 deg
RA of node:        22.0421 deg
Eccentricity:    0.0015987
Arg of perigee:   133.7108 deg
Mean anomaly:      36.2097 deg
Mean motion:   15.84468857 rev/day
Decay rate:    1.0430E-003 rev/day^2
Epoch rev:           84848
Checksum:              299

Satellite: RS-12/13
Catalog number: 21089
Epoch time:      100355.54472581
Element set:     298 
Inclination:       82.9234 deg
RA of node:        47.5328 deg
Eccentricity:    0.0029034
Arg of perigee:   329.5875 deg
Mean anomaly:      30.3597 deg
Mean motion:   13.74240012 rev/day
Decay rate:    8.8000E-007 rev/day^2
Epoch rev:           49527
Checksum:              319

Satellite: RS-15
Catalog number: 23439
Epoch time:      100354.77815022
Element set:     508 
Inclination:       64.8173 deg
RA of node:       240.3349 deg
Eccentricity:    0.0167380
Arg of perigee:   257.4843 deg
Mean anomaly:     100.7310 deg
Mean motion:   11.27539116 rev/day
Decay rate:   -3.7999E-007 rev/day^2
Epoch rev:           24643
Checksum:              316

Satellite: UO-14
Catalog number: 20437
Epoch time:      100355.55922053
Element set:     580 
Inclination:       98.3871 deg
RA of node:        56.1502 deg
Eccentricity:    0.0011749
Arg of perigee:    26.8752 deg
Mean anomaly:     333.3054 deg
Mean motion:   14.30600680 rev/day
Decay rate:    2.8300E-006 rev/day^2
Epoch rev:           56951
Checksum:              288

Satellite: UO-15
Catalog number: 20438
Epoch time:      100354.69168779
Element set:     368 
Inclination:       98.3583 deg
RA of node:        48.2109 deg
Eccentricity:    0.0011191
Arg of perigee:    38.7306 deg
Mean anomaly:     321.4676 deg
Mean motion:   14.29703277 rev/day
Decay rate:    1.2199E-006 rev/day^2
Epoch rev:           56913
Checksum:              337

Satellite: AO-16
Catalog number: 20439
Epoch time:      100355.24925608
Element set:     378 
Inclination:       98.4280 deg
RA of node:        63.1415 deg
Eccentricity:    0.0012158
Arg of perigee:    30.1025 deg
Mean anomaly:     330.0855 deg
Mean motion:   14.30701054 rev/day
Decay rate:    2.8300E-006 rev/day^2
Epoch rev:           56949
Checksum:              281

Satellite: DO-17
Catalog number: 20440
Epoch time:      100355.23169808
Element set:     372 
Inclination:       98.4401 deg
RA of node:        65.4042 deg
Eccentricity:    0.0011993
Arg of perigee:    30.1405 deg
Mean anomaly:     330.0466 deg
Mean motion:   14.30903152 rev/day
Decay rate:    3.2699E-006 rev/day^2
Epoch rev:           56954
Checksum:              286

Satellite: WO-18
Catalog number: 20441
Epoch time:      100354.92925992
Element set:     389 
Inclination:       98.4384 deg
RA of node:        64.7321 deg
Eccentricity:    0.0012331
Arg of perigee:    33.0514 deg
Mean anomaly:     327.1437 deg
Mean motion:   14.30795990 rev/day
Decay rate:    2.7799E-006 rev/day^2
Epoch rev:           56949
Checksum:              340

Satellite: LO-19
Catalog number: 20442
Epoch time:      100355.27205509
Element set:     378 
Inclination:       98.4478 deg
RA of node:        66.8506 deg
Eccentricity:    0.0012857
Arg of perigee:    29.0815 deg
Mean anomaly:     331.1081 deg
Mean motion:   14.30939047 rev/day
Decay rate:    3.2800E-006 rev/day^2
Epoch rev:           56958
Checksum:              320

Satellite: AO-21
Catalog number: 21087
Epoch time:      100355.49453615
Element set:     237 
Inclination:       82.9406 deg
RA of node:       182.4206 deg
Eccentricity:    0.0034401
Arg of perigee:   295.3752 deg
Mean anomaly:      64.3843 deg
Mean motion:   13.74747490 rev/day
Decay rate:    8.8000E-007 rev/day^2
Epoch rev:           49632
Checksum:              310

Satellite: UO-22
Catalog number: 21575
Epoch time:      100354.95345536
Element set:     92 
Inclination:       98.1367 deg
RA of node:        12.7653 deg
Eccentricity:    0.0007938
Arg of perigee:     7.4955 deg
Mean anomaly:     352.6343 deg
Mean motion:   14.37958150 rev/day
Decay rate:    3.8700E-006 rev/day^2
Epoch rev:           49461
Checksum:              436

Satellite: KO-23
Catalog number: 22077
Epoch time:      100354.97746839
Element set:     970 
Inclination:       66.0870 deg
RA of node:       341.3178 deg
Eccentricity:    0.0015802
Arg of perigee:   275.6533 deg
Mean anomaly:      84.2681 deg
Mean motion:   12.86356641 rev/day
Decay rate:   -3.7000E-007 rev/day^2
Epoch rev:           39261
Checksum:              324

Satellite: KO-25
Catalog number: 22828
Epoch time:      100354.66455535
Element set:     839 
Inclination:       98.3799 deg
RA of node:        45.4766 deg
Eccentricity:    0.0011103
Arg of perigee:    56.5378 deg
Mean anomaly:     303.6861 deg
Mean motion:   14.28881661 rev/day
Decay rate:    2.9600E-006 rev/day^2
Epoch rev:           34515
Checksum:              339

Satellite: IO-26
Catalog number: 22826
Epoch time:      100354.68059766
Element set:     857 
Inclination:       98.3839 deg
RA of node:        45.2972 deg
Eccentricity:    0.0009820
Arg of perigee:    75.0385 deg
Mean anomaly:     285.1896 deg
Mean motion:   14.28465169 rev/day
Decay rate:    2.8100E-006 rev/day^2
Epoch rev:           37698
Checksum:              483

Satellite: AO-27
Catalog number: 22825
Epoch time:      100355.24432107
Element set:     865 
Inclination:       98.3809 deg
RA of node:        45.1252 deg
Eccentricity:    0.0009470
Arg of perigee:    73.6081 deg
Mean anomaly:     286.6141 deg
Mean motion:   14.28305321 rev/day
Decay rate:    2.0899E-006 rev/day^2
Epoch rev:           37703
Checksum:              306

Satellite: MO-30
Catalog number: 24305
Epoch time:      100353.84413392
Element set:     469 
Inclination:       82.9354 deg
RA of node:       128.1314 deg
Eccentricity:    0.0029012
Arg of perigee:   246.9485 deg
Mean anomaly:     112.8604 deg
Mean motion:   13.73263355 rev/day
Decay rate:    2.0400E-006 rev/day^2
Epoch rev:           21481
Checksum:              281

Satellite: TO-31
Catalog number: 25396
Epoch time:      100354.97706650
Element set:     458 
Inclination:       98.7057 deg
RA of node:        68.4338 deg
Eccentricity:    0.0001828
Arg of perigee:   271.7959 deg
Mean anomaly:      88.3023 deg
Mean motion:   14.22856964 rev/day
Decay rate:   -4.4000E-007 rev/day^2
Epoch rev:           12707
Checksum:              339

Satellite: GO-32
Catalog number: 25397
Epoch time:      100354.94845750
Element set:     379 
Inclination:       98.7030 deg
RA of node:        68.0758 deg
Eccentricity:    0.0000533
Arg of perigee:   306.8952 deg
Mean anomaly:      53.2177 deg
Mean motion:   14.22516592 rev/day
Decay rate:    1.6300E-006 rev/day^2
Epoch rev:           12707
Checksum:              431

Satellite: SO-33
Catalog number: 25509
Epoch time:      100355.20358593
Element set:     199 
Inclination:       31.4473 deg
RA of node:       289.0567 deg
Eccentricity:    0.0363642
Arg of perigee:   252.6474 deg
Mean anomaly:     103.4082 deg
Mean motion:   14.25297437 rev/day
Decay rate:    9.2299E-006 rev/day^2
Epoch rev:           11238
Checksum:              329

Satellite: PO-34
Catalog number: 25520
Epoch time:      100354.60940960
Element set:     257 
Inclination:       28.4619 deg
RA of node:        64.7342 deg
Eccentricity:    0.0007046
Arg of perigee:    99.7279 deg
Mean anomaly:     260.4109 deg
Mean motion:   15.07189498 rev/day
Decay rate:    3.1679E-005 rev/day^2
Epoch rev:           11787
Checksum:              337

Satellite: SO-35
Catalog number: 25636
Epoch time:      100355.47280655
Element set:     278 
Inclination:       96.4514 deg
RA of node:       154.4007 deg
Eccentricity:    0.0151086
Arg of perigee:   312.9560 deg
Mean anomaly:      45.9054 deg
Mean motion:   14.41614182 rev/day
Decay rate:    6.2099E-006 rev/day^2
Epoch rev:            9592
Checksum:              318

